• In Russia
  • List of Countries
  • For 7 days
  • Water Temperature
  • Satellite Maps
  • Weather Map
  • Weather Widgets
  • user-avatar
    Login

    Hourly Weather Gjirokaster

    Today, 22 January, Sunday

    Time Temperature Precipitation Wind Pressure Humidity
    00:00 -5°C° 0 mm 2 mps 655 mmHg 85%
    01:00 -5°C° 0 mm 2 mps 655 mmHg 84%
    02:00 -5°C° 0 mm 2 mps 655 mmHg 84%
    03:00 -5°C° 0 mm 2 mps 655 mmHg 84%
    04:00 -6°C° 0 mm 2 mps 655 mmHg 84%
    05:00 -6°C° 0 mm 2 mps 655 mmHg 84%
    06:00 -6°C° 0 mm 2 mps 655 mmHg 84%
    07:00 -7°C° 0 mm 3 mps 655 mmHg 83%
    08:00 -5°C° 0 mm 3 mps 656 mmHg 79%
    09:00 -2°C° 0 mm 3 mps 656 mmHg 76%
    10:00 -1°C° 0 mm 2 mps 657 mmHg 72%
    11:00 +1°C° 0 mm 2 mps 657 mmHg 71%
    12:00 +2°C° 0 mm 2 mps 657 mmHg 69%
    13:00 +3°C° 0 mm 2 mps 657 mmHg 67%
    14:00 +3°C° 0 mm 2 mps 657 mmHg 71%
    15:00 +3°C° 0 mm 1 mps 656 mmHg 76%
    16:00 +2°C° 0 mm 1 mps 656 mmHg 81%
    17:00 -1°C° 0 mm 2 mps 656 mmHg 82%
    18:00 -3°C° 0 mm 2 mps 655 mmHg 84%
    19:00 -4°C° 0 mm 2 mps 655 mmHg 85%
    20:00 -4°C° 0 mm 2 mps 655 mmHg 85%
    21:00 -5°C° 0 mm 3 mps 655 mmHg 85%
    22:00 -5°C° 0 mm 3 mps 655 mmHg 85%
    23:00 -6°C° 0 mm 3 mps 655 mmHg 85%

    Tomorrow, 23 January, Monday

    Time Temperature Precipitation Wind Pressure Humidity
    00:00 -6°C° 0 mm 3 mps 655 mmHg 84%
    01:00 -6°C° 0 mm 3 mps 655 mmHg 84%
    02:00 -6°C° 0 mm 3 mps 654 mmHg 84%
    03:00 -6°C° 0 mm 3 mps 654 mmHg 84%
    04:00 -7°C° 0 mm 3 mps 654 mmHg 85%
    05:00 -7°C° 0 mm 3 mps 653 mmHg 85%
    06:00 -7°C° 0 mm 3 mps 653 mmHg 85%
    07:00 -7°C° 0 mm 3 mps 653 mmHg 84%
    08:00 -5°C° 0 mm 3 mps 653 mmHg 80%
    09:00 -4°C° 0 mm 3 mps 653 mmHg 76%
    10:00 -1°C° 0 mm 3 mps 654 mmHg 72%
    11:00 0°C° 0 mm 3 mps 654 mmHg 71%
    12:00 0°C° 0 mm 3 mps 653 mmHg 70%
    13:00 +1°C° 0 mm 3 mps 653 mmHg 69%
    14:00 0°C° 0.1 mm 3 mps 652 mmHg 74%
    15:00 -1°C° 0.1 mm 3 mps 652 mmHg 78%
    16:00 -1°C° 0.1 mm 3 mps 651 mmHg 82%
    17:00 -2°C° 1.1 mm 3 mps 651 mmHg 85%
    18:00 -2°C° 1.1 mm 3 mps 650 mmHg 87%
    19:00 -4°C° 1.1 mm 3 mps 650 mmHg 89%
    20:00 -4°C° 1.3 mm 3 mps 650 mmHg 90%
    21:00 -4°C° 1.3 mm 4 mps 650 mmHg 91%
    22:00 -4°C° 1.3 mm 4 mps 649 mmHg 92%
    23:00 -4°C° 1.8 mm 4 mps 649 mmHg 92%

    Day after tomorrow, 24 January, Tuesday

    Time Temperature Precipitation Wind Pressure Humidity
    00:00 -4°C° 1.8 mm 4 mps 649 mmHg 93%
    01:00 -4°C° 1.8 mm 4 mps 649 mmHg 94%
    02:00 -4°C° 1.9 mm 4 mps 648 mmHg 94%
    03:00 -4°C° 1.9 mm 4 mps 648 mmHg 94%
    04:00 -4°C° 1.9 mm 4 mps 647 mmHg 94%
    05:00 -4°C° 0.5 mm 3 mps 647 mmHg 94%
    06:00 -4°C° 0.5 mm 3 mps 647 mmHg 93%
    07:00 -4°C° 0.5 mm 3 mps 647 mmHg 93%
    08:00 -3°C° 0.2 mm 2 mps 648 mmHg 92%
    09:00 -2°C° 0.2 mm 2 mps 648 mmHg 91%
    10:00 -2°C° 0.2 mm 2 mps 648 mmHg 90%
    11:00 -1°C° 0.2 mm 2 mps 648 mmHg 90%
    12:00 -1°C° 0.2 mm 2 mps 648 mmHg 89%
    13:00 +2°C° 0.2 mm 1 mps 648 mmHg 89%
    14:00 +2°C° 0.2 mm 1 mps 647 mmHg 90%
    15:00 +1°C° 0.2 mm 1 mps 647 mmHg 91%
    16:00 +1°C° 0.2 mm 1 mps 647 mmHg 92%
    17:00 0°C° 0.1 mm 1 mps 647 mmHg 91%
    18:00 0°C° 0.1 mm 1 mps 647 mmHg 91%
    19:00 -1°C° 0.1 mm 1 mps 647 mmHg 91%
    20:00 -1°C° 0 mm 1 mps 647 mmHg 90%
    21:00 -1°C° 0 mm 1 mps 647 mmHg 90%
    22:00 -1°C° 0 mm 1 mps 648 mmHg 90%
    23:00 -2°C° 0 mm 1 mps 648 mmHg 90%

    25 January, Wednesday

    Time Temperature Precipitation Wind Pressure Humidity
    00:00 -2°C° 0 mm 1 mps 647 mmHg 90%
    01:00 -2°C° 0 mm 1 mps 647 mmHg 90%
    02:00 -2°C° 0.1 mm 1 mps 647 mmHg 90%
    03:00 -4°C° 0.1 mm 2 mps 647 mmHg 90%
    04:00 -4°C° 0.1 mm 2 mps 647 mmHg 90%
    05:00 -4°C° 0.2 mm 2 mps 648 mmHg 90%
    06:00 -4°C° 0.2 mm 2 mps 648 mmHg 90%
    07:00 -4°C° 0.2 mm 2 mps 648 mmHg 90%
    08:00 -3°C° 0.1 mm 2 mps 649 mmHg 89%
    09:00 -2°C° 0.1 mm 2 mps 649 mmHg 87%
    10:00 -1°C° 0.1 mm 2 mps 650 mmHg 86%
    11:00 +2°C° 0.1 mm 1 mps 650 mmHg 85%
    12:00 +2°C° 0.1 mm 1 mps 650 mmHg 83%
    13:00 +3°C° 0.1 mm 1 mps 650 mmHg 82%
    14:00 +2°C° 0.1 mm 1 mps 650 mmHg 84%
    15:00 +2°C° 0.1 mm 1 mps 650 mmHg 86%
    16:00 +1°C° 0.1 mm 1 mps 651 mmHg 88%
    17:00 -2°C° 0 mm 2 mps 651 mmHg 89%
    18:00 -3°C° 0 mm 2 mps 651 mmHg 89%
    19:00 -4°C° 0 mm 2 mps 651 mmHg 90%
    20:00 -4°C° 0 mm 2 mps 651 mmHg 89%
    21:00 -4°C° 0 mm 2 mps 651 mmHg 89%
    22:00 -4°C° 0 mm 2 mps 652 mmHg 88%
    23:00 -5°C° 0 mm 2 mps 652 mmHg 88%

    26 January, Thursday

    Time Temperature Precipitation Wind Pressure Humidity
    00:00 -5°C° 0 mm 2 mps 652 mmHg 88%
    01:00 -5°C° 0 mm 2 mps 652 mmHg 88%
    02:00 -5°C° 0 mm 2 mps 652 mmHg 88%
    03:00 -5°C° 0 mm 2 mps 652 mmHg 88%
    04:00 -5°C° 0 mm 2 mps 652 mmHg 88%
    05:00 -5°C° 0.1 mm 2 mps 652 mmHg 88%
    06:00 -5°C° 0.1 mm 2 mps 653 mmHg 88%
    07:00 -5°C° 0.1 mm 2 mps 653 mmHg 88%
    08:00 -4°C° 0.1 mm 2 mps 653 mmHg 86%
    09:00 -3°C° 0.1 mm 2 mps 654 mmHg 84%
    10:00 -2°C° 0.1 mm 2 mps 654 mmHg 83%
    11:00 -2°C° 0.1 mm 2 mps 654 mmHg 82%
    12:00 -1°C° 0.1 mm 2 mps 654 mmHg 81%
    13:00 +1°C° 0.1 mm 1 mps 654 mmHg 80%
    14:00 +1°C° 0.1 mm 1 mps 655 mmHg 82%
    15:00 +1°C° 0.1 mm 1 mps 655 mmHg 84%
    16:00 0°C° 0.1 mm 1 mps 655 mmHg 86%
    17:00 0°C° 0 mm 1 mps 655 mmHg 86%
    18:00 -1°C° 0 mm 1 mps 655 mmHg 87%
    19:00 -2°C° 0 mm 1 mps 655 mmHg 87%
    20:00 -5°C° 0 mm 2 mps 655 mmHg 87%
    21:00 -5°C° 0 mm 2 mps 656 mmHg 87%
    22:00 -5°C° 0 mm 2 mps 656 mmHg 87%
    23:00 -6°C° 0 mm 2 mps 656 mmHg 87%

    27 January, Friday

    Time Temperature Precipitation Wind Pressure Humidity
    00:00 -6°C° 0 mm 2 mps 656 mmHg 87%
    01:00 -6°C° 0 mm 2 mps 656 mmHg 87%
    02:00 -7°C° 0 mm 2 mps 656 mmHg 86%
    03:00 -7°C° 0 mm 2 mps 656 mmHg 86%
    04:00 -7°C° 0 mm 2 mps 656 mmHg 86%
    05:00 -7°C° 0 mm 2 mps 656 mmHg 85%
    06:00 -8°C° 0 mm 2 mps 657 mmHg 85%
    07:00 -8°C° 0 mm 2 mps 657 mmHg 85%
    08:00 -6°C° 0 mm 2 mps 658 mmHg 81%
    09:00 -5°C° 0 mm 2 mps 658 mmHg 77%
    10:00 -3°C° 0 mm 2 mps 659 mmHg 73%
    11:00 -2°C° 0 mm 2 mps 659 mmHg 71%
    12:00 +1°C° 0 mm 1 mps 659 mmHg 69%
    13:00 +2°C° 0 mm 1 mps 659 mmHg 67%
    14:00 +1°C° 0 mm 1 mps 659 mmHg 71%
    15:00 0°C° 0 mm 1 mps 659 mmHg 75%
    16:00 -1°C° 0 mm 1 mps 659 mmHg 79%
    17:00 -2°C° 0 mm 1 mps 658 mmHg 81%
    18:00 -4°C° 0 mm 1 mps 658 mmHg 84%
    19:00 -7°C° 0 mm 1 mps 657 mmHg 86%
    20:00 -7°C° 0 mm 1 mps 658 mmHg 84%
    21:00 -7°C° 0 mm 1 mps 658 mmHg 83%
    22:00 -8°C° 0 mm 1 mps 658 mmHg 81%
    23:00 -8°C° 0 mm 1 mps 658 mmHg 78%
    Show more